When you browse on this site, cookies collect data to enhance your experience and personalize the content and advertising you see.
Visit our Privacy Policy to learn more. By continuing to use the site, you agree to this use of cookies and data.
  • In Österreich
  • Länderverzeichnis
  • Für 7 Tage
  • Wassertemperatur
  • Wetterkarte
  • News
  • Widgets
  • user-avatar
    Anmelden

    Stündliche Wetter Zamoshe

    Heute, 6 Juni, Samstag

    Zeit Temperatur Niederschläge Wind Luftdruck Luftfeuchtigkeit
    00:00 +16°C° 0 mm 3 m/S 741 mmHg 95%
    01:00 +14°C° 0 mm 3 m/S 741 mmHg 95%
    02:00 +14°C° 0 mm 3 m/S 741 mmHg 96%
    03:00 +14°C° 0.1 mm 3 m/S 741 mmHg 96%
    04:00 +16°C° 0.1 mm 2 m/S 741 mmHg 96%
    05:00 +16°C° 0.1 mm 2 m/S 741 mmHg 96%
    06:00 +17°C° 0.1 mm 3 m/S 742 mmHg 94%
    07:00 +18°C° 0.1 mm 3 m/S 742 mmHg 92%
    08:00 +19°C° 0 mm 4 m/S 743 mmHg 90%
    09:00 +20°C° 0 mm 4 m/S 743 mmHg 84%
    10:00 +21°C° 0 mm 4 m/S 743 mmHg 77%
    11:00 +22°C° 0 mm 4 m/S 744 mmHg 71%
    12:00 +23°C° 0.1 mm 4 m/S 744 mmHg 68%
    13:00 +25°C° 0.1 mm 4 m/S 744 mmHg 64%
    14:00 +26°C° 0 mm 4 m/S 744 mmHg 62%
    15:00 +25°C° 0.1 mm 4 m/S 744 mmHg 62%
    16:00 +25°C° 0.1 mm 3 m/S 745 mmHg 63%
    17:00 +25°C° 0.1 mm 3 m/S 745 mmHg 63%
    18:00 +23°C° 0 mm 2 m/S 745 mmHg 70%
    19:00 +21°C° 0 mm 1 m/S 745 mmHg 77%
    20:00 +17°C° 0 mm 0 m/S 746 mmHg 84%
    21:00 +17°C° 0 mm 0 m/S 746 mmHg 85%
    22:00 +16°C° 0 mm 0 m/S 746 mmHg 86%
    23:00 +15°C° 0 mm 0 m/S 747 mmHg 87%

    Morgen, 7 Juni, Sonntag

    Zeit Temperatur Niederschläge Wind Luftdruck Luftfeuchtigkeit
    00:00 +16°C° 0 mm 1 m/S 747 mmHg 88%
    01:00 +16°C° 0 mm 1 m/S 747 mmHg 88%
    02:00 +16°C° 0 mm 1 m/S 747 mmHg 89%
    03:00 +16°C° 0 mm 2 m/S 747 mmHg 89%
    04:00 +16°C° 0 mm 2 m/S 747 mmHg 89%
    05:00 +16°C° 0 mm 2 m/S 747 mmHg 89%
    06:00 +18°C° 0 mm 2 m/S 747 mmHg 86%
    07:00 +19°C° 0 mm 3 m/S 747 mmHg 83%
    08:00 +21°C° 0 mm 3 m/S 748 mmHg 80%
    09:00 +22°C° 0 mm 3 m/S 748 mmHg 76%
    10:00 +25°C° 0 mm 3 m/S 748 mmHg 72%
    11:00 +26°C° 0 mm 3 m/S 748 mmHg 68%
    12:00 +27°C° 0.1 mm 4 m/S 748 mmHg 67%
    13:00 +27°C° 0.1 mm 4 m/S 747 mmHg 65%
    14:00 +28°C° 0.1 mm 4 m/S 747 mmHg 64%
    15:00 +28°C° 0 mm 4 m/S 747 mmHg 63%
    16:00 +28°C° 0 mm 4 m/S 747 mmHg 62%
    17:00 +28°C° 0 mm 4 m/S 746 mmHg 62%
    18:00 +26°C° 0 mm 4 m/S 746 mmHg 67%
    19:00 +24°C° 0 mm 3 m/S 746 mmHg 73%
    20:00 +21°C° 0 mm 3 m/S 746 mmHg 78%
    21:00 +20°C° 0 mm 3 m/S 746 mmHg 82%
    22:00 +19°C° 0 mm 3 m/S 747 mmHg 85%
    23:00 +18°C° 0 mm 3 m/S 747 mmHg 89%

    übermorgen, 8 Juni, Montag

    Zeit Temperatur Niederschläge Wind Luftdruck Luftfeuchtigkeit
    00:00 +18°C° 0 mm 3 m/S 747 mmHg 90%
    01:00 +18°C° 0 mm 3 m/S 747 mmHg 92%
    02:00 +17°C° 0 mm 3 m/S 747 mmHg 94%
    03:00 +17°C° 0 mm 3 m/S 747 mmHg 94%
    04:00 +17°C° 0 mm 3 m/S 747 mmHg 94%
    05:00 +17°C° 0 mm 3 m/S 747 mmHg 93%
    06:00 +19°C° 0 mm 3 m/S 747 mmHg 87%
    07:00 +21°C° 0 mm 3 m/S 747 mmHg 80%
    08:00 +23°C° 0 mm 4 m/S 747 mmHg 74%
    09:00 +25°C° 0 mm 4 m/S 747 mmHg 67%
    10:00 +27°C° 0 mm 4 m/S 747 mmHg 61%
    11:00 +29°C° 0 mm 4 m/S 747 mmHg 54%
    12:00 +29°C° 0 mm 4 m/S 747 mmHg 53%
    13:00 +29°C° 0 mm 4 m/S 747 mmHg 51%
    14:00 +30°C° 0 mm 4 m/S 747 mmHg 49%
    15:00 +29°C° 0 mm 4 m/S 747 mmHg 53%
    16:00 +29°C° 0 mm 4 m/S 746 mmHg 57%
    17:00 +29°C° 0 mm 4 m/S 746 mmHg 60%
    18:00 +27°C° 0 mm 3 m/S 746 mmHg 67%
    19:00 +25°C° 0 mm 3 m/S 746 mmHg 73%
    20:00 +22°C° 0 mm 3 m/S 746 mmHg 79%
    21:00 +21°C° 0 mm 2 m/S 746 mmHg 82%
    22:00 +20°C° 0 mm 2 m/S 746 mmHg 86%
    23:00 +19°C° 0 mm 2 m/S 747 mmHg 90%

    9 Juni, Dienstag

    Zeit Temperatur Niederschläge Wind Luftdruck Luftfeuchtigkeit
    00:00 +19°C° 0 mm 2 m/S 747 mmHg 91%
    01:00 +18°C° 0 mm 2 m/S 747 mmHg 92%
    02:00 +18°C° 0 mm 2 m/S 747 mmHg 94%
    03:00 +18°C° 0 mm 2 m/S 747 mmHg 94%
    04:00 +18°C° 0 mm 2 m/S 746 mmHg 93%
    05:00 +18°C° 0 mm 2 m/S 746 mmHg 93%
    06:00 +20°C° 0 mm 3 m/S 747 mmHg 88%
    07:00 +21°C° 0 mm 3 m/S 747 mmHg 83%
    08:00 +24°C° 0 mm 3 m/S 747 mmHg 78%
    09:00 +26°C° 0 mm 4 m/S 747 mmHg 70%
    10:00 +27°C° 0 mm 4 m/S 747 mmHg 63%
    11:00 +29°C° 0 mm 5 m/S 747 mmHg 56%
    12:00 +29°C° 0 mm 4 m/S 747 mmHg 54%
    13:00 +30°C° 0 mm 4 m/S 747 mmHg 51%
    14:00 +30°C° 0 mm 4 m/S 747 mmHg 49%
    15:00 +30°C° 0 mm 4 m/S 747 mmHg 52%
    16:00 +30°C° 0 mm 3 m/S 746 mmHg 55%
    17:00 +30°C° 0 mm 3 m/S 746 mmHg 57%
    18:00 +28°C° 0 mm 3 m/S 746 mmHg 64%
    19:00 +26°C° 0 mm 2 m/S 746 mmHg 71%
    20:00 +24°C° 0 mm 2 m/S 746 mmHg 79%
    21:00 +23°C° 0 mm 2 m/S 747 mmHg 82%
    22:00 +21°C° 0 mm 2 m/S 747 mmHg 85%
    23:00 +21°C° 0 mm 2 m/S 747 mmHg 87%

    10 Juni, Mittwoch

    Zeit Temperatur Niederschläge Wind Luftdruck Luftfeuchtigkeit
    00:00 +20°C° 0 mm 2 m/S 747 mmHg 90%
    01:00 +20°C° 0 mm 2 m/S 747 mmHg 92%
    02:00 +19°C° 0 mm 2 m/S 747 mmHg 94%
    03:00 +19°C° 0 mm 2 m/S 747 mmHg 94%
    04:00 +19°C° 0 mm 2 m/S 747 mmHg 94%
    05:00 +19°C° 0 mm 2 m/S 747 mmHg 94%
    06:00 +21°C° 0.1 mm 3 m/S 747 mmHg 89%
    07:00 +22°C° 0.1 mm 3 m/S 747 mmHg 85%
    08:00 +25°C° 0.1 mm 3 m/S 747 mmHg 80%
    09:00 +26°C° 0.1 mm 3 m/S 747 mmHg 73%
    10:00 +28°C° 0.1 mm 4 m/S 747 mmHg 66%
    11:00 +29°C° 0.1 mm 4 m/S 747 mmHg 59%
    12:00 +30°C° 0.2 mm 4 m/S 746 mmHg 56%
    13:00 +32°C° 0.2 mm 4 m/S 746 mmHg 54%
    14:00 +32°C° 0.2 mm 4 m/S 746 mmHg 52%
    15:00 +32°C° 0.1 mm 4 m/S 746 mmHg 53%
    16:00 +30°C° 0.1 mm 4 m/S 745 mmHg 55%
    17:00 +30°C° 0.1 mm 4 m/S 745 mmHg 57%
    18:00 +28°C° 0 mm 3 m/S 745 mmHg 63%
    19:00 +26°C° 0 mm 3 m/S 745 mmHg 70%
    20:00 +24°C° 0 mm 3 m/S 746 mmHg 76%
    21:00 +24°C° 0 mm 3 m/S 746 mmHg 80%
    22:00 +23°C° 0 mm 2 m/S 746 mmHg 83%
    23:00 +21°C° 0 mm 2 m/S 746 mmHg 86%

    11 Juni, Donnerstag

    Zeit Temperatur Niederschläge Wind Luftdruck Luftfeuchtigkeit
    00:00 +20°C° 0 mm 2 m/S 746 mmHg 89%
    01:00 +20°C° 0 mm 2 m/S 746 mmHg 92%
    02:00 +19°C° 0 mm 2 m/S 745 mmHg 95%
    03:00 +20°C° 0 mm 2 m/S 745 mmHg 94%
    04:00 +20°C° 0 mm 2 m/S 745 mmHg 94%
    05:00 +20°C° 0 mm 2 m/S 745 mmHg 94%
    06:00 +21°C° 0 mm 3 m/S 745 mmHg 88%
    07:00 +24°C° 0 mm 3 m/S 746 mmHg 82%
    08:00 +26°C° 0 mm 3 m/S 746 mmHg 76%
    09:00 +27°C° 0.1 mm 3 m/S 746 mmHg 69%
    10:00 +29°C° 0.1 mm 4 m/S 745 mmHg 63%
    11:00 +30°C° 0.1 mm 4 m/S 745 mmHg 56%
    12:00 +32°C° 0.2 mm 4 m/S 745 mmHg 55%
    13:00 +32°C° 0.2 mm 4 m/S 745 mmHg 54%
    14:00 +32°C° 0.2 mm 4 m/S 745 mmHg 53%
    15:00 +32°C° 0.1 mm 4 m/S 744 mmHg 55%
    16:00 +31°C° 0.1 mm 3 m/S 744 mmHg 57%
    17:00 +30°C° 0.1 mm 3 m/S 744 mmHg 59%
    18:00 +29°C° 0.1 mm 3 m/S 744 mmHg 65%
    19:00 +27°C° 0.1 mm 3 m/S 744 mmHg 72%
    20:00 +25°C° 0.1 mm 3 m/S 744 mmHg 78%
    21:00 +24°C° 0 mm 3 m/S 744 mmHg 81%
    22:00 +23°C° 0 mm 2 m/S 745 mmHg 84%
    23:00 +21°C° 0 mm 2 m/S 745 mmHg 88%
    Mehr zeigen